Theta_e
291 291 291 290 289 288 289 288 289 288 288 289 288 287 286 286 283 282 282 283 283 286 285 284 285 285 285 285 285 283 284 284 282 284 284 283 283 283 284 286 287 287 288 288 288 288 288 289 289 289 290 290 290 290 290 290 290 290 291 291 291 293 293 293 293 293 293 293 294 295 295 294 294 294
290 290 290 289 288 288 288 288 288 288 287 287 287 286 286 286 284 284 282 283 285 284 285 285 285 285 284 285 284 285 284 283 281 283 283 283 283 282 283 284 285 286 287 287 286 287 288 288 289 289 289 289 289 290 289 289 289 290 290 291 291 292 292 292 292 292 292 293 294 294 294 294 294 294
288 287 287 288 287 287 288 287 287 287 287 287 287 286 286 286 286 284 284 281 284 285 284 285 286 285 285 284 284 284 284 283 282 282 283 283 282 281 282 282 284 285 285 285 286 287 287 288 288 288 288 288 288 288 288 288 288 289 289 290 290 291 292 290 290 290 291 292 292 293 294 293 294 294
288 286 286 286 286 286 286 285 285 285 286 286 286 286 286 285 285 285 283 282 282 286 284 285 285 285 284 285 283 284 284 283 280 282 282 283 281 282 282 282 283 284 284 284 285 286 286 287 288 288 287 287 287 287 287 287 288 288 288 289 290 289 289 288 288 289 290 291 291 292 292 293 293 292
286 286 285 285 285 285 285 284 285 285 284 284 285 285 285 284 284 283 282 281 281 284 285 284 284 285 284 282 284 283 283 283 283 282 283 283 282 282 282 282 282 283 283 284 284 285 286 287 287 287 286 286 286 286 286 286 286 287 288 288 289 288 288 288 288 289 289 290 291 291 291 292 291 291
285 285 285 284 284 284 283 283 283 283 282 282 283 283 283 284 284 284 282 281 281 281 284 283 284 283 283 281 284 282 282 282 283 282 282 282 282 282 282 282 282 282 283 283 284 285 286 286 287 286 285 285 285 285 286 285 286 287 287 286 286 287 287 287 288 288 288 289 290 290 291 291 292 291
285 284 284 283 282 283 282 281 281 281 281 282 282 282 283 282 283 283 283 281 280 281 281 283 282 282 282 281 281 282 282 282 281 281 281 281 282 282 281 281 282 282 283 284 284 285 285 285 285 285 285 284 284 284 285 285 285 285 286 286 285 285 285 286 287 287 288 289 289 289 289 290 291 291
284 284 282 281 281 282 281 280 280 281 281 281 282 282 282 282 282 282 282 282 281 280 279 281 281 282 281 281 282 282 281 281 281 281 281 282 281 281 281 281 281 282 283 284 284 284 285 285 285 285 284 284 283 284 284 284 284 284 284 284 284 284 284 285 286 286 287 288 289 289 289 290 289 290
283 283 282 281 281 281 280 280 280 280 280 281 281 281 281 281 281 281 281 281 281 280 279 280 282 282 281 281 281 281 280 280 281 281 280 280 280 280 281 281 281 282 283 283 283 283 283 283 284 284 283 283 283 283 283 283 283 283 283 283 282 283 283 285 285 285 286 286 286 287 288 288 289 289
282 281 282 281 280 280 280 280 280 280 280 280 280 280 281 281 281 281 281 281 280 280 280 280 279 281 280 280 280 281 280 279 279 280 281 281 280 279 279 280 281 281 281 281 281 281 282 282 282 283 282 282 282 282 282 282 282 282 282 281 281 282 284 284 285 285 285 285 285 286 286 287 288 288
281 281 281 280 280 280 280 280 280 280 280 280 280 281 281 281 281 280 280 280 280 279 279 279 280 279 280 280 278 281 281 280 279 278 278 278 281 280 279 279 281 281 281 282 282 282 281 281 281 281 282 282 282 282 281 281 281 281 281 281 281 282 284 284 284 284 285 284 284 285 285 285 287 287
281 281 280 279 279 280 280 281 281 281 281 281 280 281 281 281 280 280 280 280 279 279 279 279 279 279 279 279 280 280 279 278 278 279 278 277 279 280 281 280 279 281 281 281 281 282 281 281 281 281 281 280 280 280 280 280 279 279 280 280 281 283 283 284 284 284 284 284 284 284 284 284 285 287
279 279 278 279 279 280 281 282 283 282 283 282 281 281 280 280 280 280 280 280 280 279 279 279 279 279 278 279 279 279 278 278 278 281 280 278 279 279 279 280 281 281 280 280 281 280 280 278 278 279 278 279 278 278 278 278 279 279 280 281 282 283 283 283 283 283 283 283 283 283 283 283 284 284
278 278 278 279 281 281 281 281 282 282 282 283 283 282 281 280 280 280 279 279 280 279 278 279 279 278 278 279 279 279 279 281 281 279 279 277 279 279 278 279 281 282 281 279 278 279 280 278 278 278 277 278 278 277 277 277 278 278 280 281 282 282 283 283 283 283 283 283 283 283 283 283 283 283
277 278 278 278 280 280 280 280 281 282 283 283 282 283 283 283 281 280 279 278 279 278 278 279 279 278 278 279 280 280 280 280 280 279 279 279 278 277 276 275 280 283 279 277 276 277 280 279 276 277 277 277 277 277 277 277 278 278 280 280 281 282 282 282 282 282 282 282 282 282 282 282 283 283
277 277 277 278 278 279 280 279 280 281 282 283 283 283 283 282 282 282 281 279 278 278 277 277 278 278 278 278 279 280 280 280 280 280 279 278 277 277 276 277 276 280 280 277 276 276 279 279 277 275 276 277 277 277 277 277 278 279 280 280 281 281 281 281 282 282 281 281 281 282 282 282 282 282
278 278 278 278 278 278 280 280 280 280 281 282 283 283 283 283 283 283 283 282 281 280 278 277 277 278 278 278 279 281 281 281 279 279 278 278 278 278 277 277 278 280 280 276 276 275 277 278 276 275 276 277 276 276 277 277 278 278 279 280 280 280 280 281 281 281 281 281 281 281 281 281 281 281
278 278 279 278 278 278 278 279 279 279 280 281 281 282 283 283 283 283 283 283 282 281 279 278 277 278 279 278 280 282 282 280 279 278 278 279 278 278 277 279 278 279 279 275 275 272 275 277 275 274 275 277 276 276 276 277 277 278 278 279 279 279 279 280 280 280 280 280 280 281 281 281 281 281
279 279 279 279 279 279 278 279 279 279 280 280 280 280 281 282 283 283 283 283 282 282 281 280 279 280 281 281 282 282 283 281 280 280 279 279 278 278 279 278 278 278 279 276 274 270 274 277 275 274 275 276 275 275 276 277 277 277 278 278 278 278 279 279 279 279 280 280 280 280 280 280 280 280
279 279 279 279 279 279 280 281 282 281 280 280 279 278 278 279 279 280 283 284 285 284 283 283 283 283 282 283 282 283 282 281 280 280 279 279 277 275 274 273 275 275 278 277 273 271 272 275 273 273 275 274 273 274 275 276 276 277 277 277 277 278 278 279 278 279 279 279 279 279 280 280 280 280
279 279 279 278 278 279 279 281 282 283 282 280 278 277 277 277 277 277 279 280 282 283 284 285 286 286 286 286 286 286 286 284 283 279 276 275 276 273 272 272 274 274 276 275 274 272 270 273 273 271 273 273 273 273 273 274 275 275 276 275 276 277 278 278 278 278 278 278 278 278 279 279 279 278
280 280 281 280 279 279 279 281 281 282 282 280 279 278 277 276 276 277 278 278 278 280 281 282 283 283 283 284 284 284 285 284 284 281 276 276 276 273 272 271 272 274 276 273 274 270 270 272 272 271 272 272 272 273 273 273 273 274 274 274 275 275 276 277 277 277 277 277 277 277 278 278 278 276
282 281 281 281 281 280 280 281 281 282 281 280 280 280 278 277 276 278 279 278 278 278 277 277 278 278 279 280 280 280 281 281 281 280 279 279 276 273 272 272 272 271 272 276 275 270 270 271 272 271 268 267 271 273 272 272 272 272 272 272 272 274 275 276 276 276 276 276 276 277 277 278 277 274
283 283 282 281 282 283 283 282 282 282 282 280 280 280 278 278 277 280 279 279 279 278 278 277 278 278 278 278 278 278 278 279 279 279 279 279 278 275 273 272 272 270 272 273 273 270 271 271 269 272 269 266 265 270 271 271 271 272 271 271 271 273 274 274 274 275 275 275 275 276 276 276 276 274
283 283 283 282 282 283 283 283 283 283 283 283 281 280 279 279 280 281 280 279 280 279 279 279 278 278 278 277 277 276 276 277 277 278 278 279 278 276 274 273 272 272 273 273 274 271 268 270 268 270 268 268 268 267 269 270 271 270 271 271 270 271 271 271 272 271 273 273 274 275 275 275 277 275
283 283 282 282 281 282 283 283 283 284 284 284 283 282 284 284 284 282 282 281 281 280 279 279 279 278 277 276 275 275 275 276 276 276 277 277 277 276 276 274 272 271 272 274 275 271 269 268 269 267 268 267 266 268 266 267 269 270 271 271 271 271 271 270 270 270 271 271 271 271 272 275 276 276
282 282 282 281 281 282 282 282 283 283 283 283 283 284 284 284 284 283 282 282 281 281 280 279 277 277 277 276 276 275 275 276 276 276 276 276 276 275 274 274 274 273 273 271 273 272 270 268 269 267 266 267 265 266 266 264 266 269 269 269 270 270 271 270 269 269 270 270 270 273 273 273 274 274
282 282 282 282 281 281 281 282 282 282 282 282 283 283 283 283 282 281 281 281 280 279 279 278 278 277 277 277 276 277 277 277 276 275 275 274 274 273 272 273 272 272 271 270 270 270 269 267 267 268 267 265 264 263 262 266 267 267 266 268 269 269 270 270 269 269 269 270 269 270 270 270 271 271
283 282 281 281 280 280 279 279 279 279 279 279 280 280 280 280 279 279 279 279 278 277 277 277 277 277 277 277 278 277 275 275 274 273 272 272 271 271 270 270 270 270 269 269 269 269 269 268 267 268 267 266 264 264 264 263 265 265 266 265 265 268 268 269 269 268 268 268 268 269 269 269 269 270
279 279 278 277 277 277 277 277 277 277 277 277 277 277 278 277 278 278 277 277 277 276 277 276 276 276 277 277 275 273 273 273 272 272 271 271 269 269 268 267 268 268 268 268 268 268 269 268 268 267 266 265 265 263 264 263 263 265 266 265 266 267 268 268 268 268 268 267 268 268 269 269 269 270
277 276 276 276 276 276 276 276 276 276 277 276 277 277 277 277 277 276 276 275 275 275 275 275 275 275 276 275 273 273 273 272 272 272 270 269 269 268 268 266 266 267 268 267 267 267 268 268 268 267 265 264 265 264 264 264 263 263 264 265 265 263 265 267 267 267 267 267 268 268 268 269 269 270
275 274 274 275 276 275 275 276 276 276 276 276 276 276 276 276 276 276 277 276 275 275 275 274 275 274 274 273 273 273 272 271 271 271 269 268 268 268 266 265 265 266 266 267 266 267 267 267 268 268 267 266 263 264 265 264 263 263 263 265 265 266 266 265 266 267 267 267 266 266 267 268 268 269
272 274 275 276 276 276 275 275 275 275 275 275 275 274 274 275 275 274 274 273 272 273 272 272 272 271 272 271 272 271 271 270 270 271 269 268 267 267 266 264 264 265 266 267 267 266 266 266 267 267 267 266 266 265 263 261 263 264 263 264 265 264 265 266 266 266 267 266 264 265 265 267 268 269
276 276 276 275 275 275 274 273 273 273 273 273 273 273 273 272 272 272 271 271 271 271 270 270 270 270 270 269 270 270 269 269 270 270 269 267 267 264 264 263 264 266 265 265 266 266 266 265 265 265 265 264 264 264 263 262 262 263 264 264 264 263 264 265 266 266 266 265 264 263 264 265 267 268
276 275 274 274 274 274 273 272 271 271 271 270 270 270 270 270 270 269 269 269 268 268 268 268 268 268 268 268 268 268 268 268 268 268 268 267 266 265 264 263 264 265 265 264 265 265 265 265 264 263 263 264 263 263 265 264 262 262 263 263 263 263 264 265 265 265 265 264 265 263 263 264 265 268
275 275 274 273 272 271 271 270 269 269 269 269 268 268 268 268 268 267 266 266 265 265 266 266 266 266 266 266 266 266 266 266 266 266 266 265 265 264 264 263 263 264 264 264 264 265 264 263 263 262 261 261 261 260 262 268 266 263 262 262 263 263 264 264 264 264 263 263 264 264 262 262 264 266
273 273 272 271 271 270 269 269 268 268 268 266 266 266 265 265 265 265 264 264 264 264 264 265 264 265 264 264 264 264 264 264 263 264 264 264 264 264 263 263 263 263 262 263 264 263 263 262 263 261 260 259 259 259 261 264 266 268 264 262 262 264 263 263 262 262 263 264 264 264 263 263 263 265
272 272 271 271 269 268 268 267 266 265 264 264 264 263 263 263 263 263 263 263 263 263 263 263 263 263 263 263 262 262 263 263 263 263 263 263 263 262 262 262 262 262 262 263 263 262 263 262 261 261 260 258 258 258 259 262 262 263 266 264 262 262 263 261 261 261 262 264 263 264 265 264 264 265
269 269 268 267 265 265 264 263 263 262 261 262 262 262 261 262 262 261 262 262 262 262 262 262 262 262 262 262 262 262 261 261 261 261 262 262 262 261 261 261 261 262 262 261 262 262 262 261 261 261 260 259 258 259 259 258 258 261 263 265 263 261 262 262 261 262 262 262 263 265 265 266 267 270
264 264 264 263 263 262 262 262 261 261 260 260 260 261 260 260 260 260 260 261 261 261 261 261 261 261 261 261 261 261 261 261 261 261 261 261 261 261 260 261 260 260 260 260 260 261 261 261 261 261 260 260 260 261 260 259 259 260 260 263 266 264 263 263 262 262 261 263 263 262 262 263 263 265
262 262 261 261 261 260 260 260 260 260 260 259 258 260 260 259 259 259 260 260 260 259 259 260 260 259 259 259 260 260 259 260 260 261 261 260 260 260 260 260 260 260 259 259 260 260 261 261 261 262 261 260 260 260 258 257 257 259 261 263 265 267 267 267 264 263 262 263 262 261 261 261 262 263
260 260 260 259 259 259 259 258 259 259 259 259 259 259 258 259 259 259 260 259 258 258 259 259 259 259 259 259 259 259 259 259 259 259 260 259 259 259 260 260 259 260 259 258 259 260 261 261 261 260 259 259 258 257 256 257 257 259 260 261 263 265 266 266 267 267 265 263 262 261 261 262 263 262
259 260 259 259 259 258 259 258 258 258 258 258 258 258 258 258 259 258 258 258 258 258 258 258 259 259 259 259 259 259 258 258 259 258 258 258 258 258 259 259 259 259 259 259 260 260 260 260 260 259 258 258 257 257 256 257 258 258 259 260 261 262 262 265 265 266 267 268 267 266 264 263 262 260
258 258 259 258 258 257 257 257 257 257 257 257 258 257 258 258 257 258 258 258 257 258 258 258 258 258 258 258 258 258 259 258 258 258 258 258 258 258 258 258 258 258 258 258 258 259 259 259 259 258 257 256 257 257 256 257 257 258 258 259 259 259 259 261 262 264 265 266 267 268 269 269 269 269
258 258 258 258 257 257 257 257 257 257 257 257 257 257 257 257 257 257 257 256 256 257 257 257 257 258 258 258 258 257 258 259 259 258 258 258 258 259 258 258 258 258 258 258 257 257 258 257 257 258 257 257 257 257 257 257 257 257 258 257 257 259 259 260 260 260 261 262 265 268 269 269 269 269
Wind_Speed
5 5 5 4 5 4 4 3 3 3 3 2 3 2 2 2 5 3 5 5 4 5 7 4 6 7 5 4 4 4 4 2 1 3 4 4 4 5 9 12 12 12 12 12 11 11 11 12 13 14 15 15 15 16 17 18 19 20 21 22 23 24 25 25 25 25 26 26 27 28 29 30 30 30
5 6 5 5 5 4 4 4 3 3 3 4 3 3 2 1 3 5 6 4 1 2 5 5 3 5 6 4 4 3 3 4 3 5 5 5 4 6 11 11 12 12 13 12 11 11 12 13 14 14 15 15 15 16 17 19 20 20 21 22 23 24 24 25 25 25 25 26 27 28 29 30 31 31
6 7 7 5 5 4 5 4 3 3 3 3 3 3 2 2 2 3 5 6 1 2 2 3 2 4 6 5 4 3 4 5 5 5 5 5 4 9 9 11 12 13 12 11 11 11 12 14 15 15 15 14 15 16 18 19 20 20 21 22 23 23 24 24 25 25 25 26 27 28 29 30 31 31
5 7 7 6 5 5 5 4 4 3 2 2 2 3 2 2 2 2 4 5 6 2 2 1 3 4 4 4 4 5 4 4 9 5 5 5 6 6 5 8 12 12 11 11 11 12 13 15 15 14 14 14 15 16 18 19 20 20 21 21 22 23 24 24 24 25 25 26 27 28 29 30 29 30
6 6 6 6 6 6 6 5 4 4 3 3 2 2 2 3 3 4 4 5 6 4 3 2 2 3 3 4 5 5 5 5 5 5 5 5 5 5 6 6 10 11 11 11 11 12 13 15 15 14 13 13 14 16 18 19 19 19 20 20 21 22 23 23 23 24 25 26 27 28 28 29 31 30
5 6 7 6 6 4 4 5 4 4 4 3 3 3 3 3 3 3 4 5 5 7 3 2 2 3 3 4 4 5 5 5 4 6 5 4 5 5 6 6 7 10 11 11 12 13 13 15 15 14 13 13 14 16 18 18 19 19 19 20 20 21 22 22 23 24 25 26 26 28 28 29 29 30
6 7 6 6 5 4 5 4 4 4 4 3 3 3 3 3 2 3 4 4 5 6 6 4 4 4 3 4 4 4 4 5 5 7 7 6 5 5 7 7 7 10 12 13 13 13 13 14 15 14 13 13 14 17 18 18 18 19 19 19 19 20 21 21 23 24 25 26 27 27 28 29 29 29
8 8 7 6 6 6 5 4 4 3 3 3 3 3 3 2 3 3 3 5 5 5 6 6 4 3 3 4 3 3 4 6 6 6 7 6 7 7 7 8 8 9 13 14 14 14 14 14 15 14 13 13 15 17 18 18 18 18 18 19 19 20 20 21 22 24 25 26 26 27 27 28 29 29
8 8 7 8 7 6 5 4 4 4 5 4 3 3 3 3 3 3 3 4 5 5 7 7 5 4 4 5 5 5 6 7 7 7 7 7 8 8 8 8 8 12 16 17 17 15 15 14 14 14 13 13 15 17 18 18 18 18 18 18 19 19 20 21 22 23 25 25 25 26 27 27 28 28
6 6 7 7 7 6 6 5 4 4 6 4 4 4 4 4 3 4 4 4 5 6 7 7 7 6 5 5 6 5 5 6 7 7 7 8 8 8 8 8 7 7 7 6 6 9 12 14 15 14 13 14 15 17 18 18 18 18 18 18 18 19 19 21 22 23 24 25 26 26 26 27 28 28
5 5 5 6 6 7 7 8 6 6 5 4 5 5 5 4 4 5 5 5 5 6 6 7 7 7 6 5 7 5 4 5 6 8 9 9 7 8 8 8 7 7 8 11 14 12 9 9 8 12 15 16 16 17 17 16 17 17 17 18 18 18 20 21 22 23 24 24 25 25 26 27 27 28
6 6 5 5 5 5 5 8 6 6 6 5 6 5 5 5 6 6 5 5 5 5 7 7 7 6 6 6 6 5 4 6 8 8 8 9 8 7 7 8 8 8 8 8 6 7 9 10 13 16 16 15 15 16 15 15 15 16 17 17 18 20 21 21 22 23 23 24 24 25 25 25 26 27
5 4 3 4 4 5 4 5 4 6 6 5 4 5 6 7 6 5 4 4 4 5 6 7 7 7 7 7 7 6 7 8 9 6 6 8 9 8 9 9 9 9 9 8 6 6 6 7 7 7 8 7 9 11 13 13 16 16 15 17 19 20 20 21 22 22 23 23 24 25 25 25 26 27
5 4 4 3 4 3 2 4 7 9 8 8 5 5 7 6 6 5 5 5 5 5 6 7 7 6 8 8 8 9 8 8 8 8 8 10 9 8 9 10 8 8 8 7 8 6 5 6 7 7 8 7 7 7 7 7 9 13 18 19 19 19 20 21 21 22 23 23 24 25 25 25 26 27
6 5 4 3 4 4 5 7 11 12 12 13 13 11 10 8 8 6 6 6 6 6 7 6 5 7 10 10 9 9 9 8 9 8 8 8 8 8 8 10 7 4 6 6 6 7 5 6 8 8 8 8 7 7 7 10 14 17 18 19 18 18 19 20 21 22 23 24 24 24 25 25 26 27
5 5 4 3 3 4 6 6 6 10 13 14 14 16 16 15 14 13 10 7 6 7 7 7 7 8 9 11 9 9 9 9 8 8 8 9 8 9 9 10 10 3 5 5 7 10 6 4 6 8 8 7 7 8 10 12 15 17 18 19 18 17 18 20 21 22 23 23 24 24 25 26 26 27
7 6 4 3 3 4 8 6 6 7 8 12 17 17 16 17 18 18 19 17 11 6 6 7 9 11 10 10 11 10 10 8 9 8 9 9 9 10 11 11 9 8 3 3 7 10 8 4 8 9 7 7 8 8 10 13 14 16 18 18 16 16 18 21 21 22 23 23 23 24 25 25 26 27
7 7 7 5 5 5 6 7 8 8 9 8 9 11 12 12 15 18 21 20 22 17 10 9 11 13 11 12 12 10 8 8 8 8 9 10 10 10 12 12 11 9 1 4 6 10 10 5 6 9 8 8 8 8 10 13 14 16 18 16 13 16 20 21 21 22 22 23 23 24 25 26 26 26
7 5 5 5 6 5 5 7 9 9 9 8 6 6 7 11 11 11 12 14 13 12 12 13 15 14 12 12 12 10 8 9 9 9 10 10 11 11 11 11 11 9 7 6 5 9 10 6 8 10 9 8 8 8 10 14 15 16 16 14 11 17 21 21 21 22 22 23 24 25 25 26 26 26
4 4 5 5 6 7 8 9 13 11 8 7 10 12 10 9 9 10 10 11 12 12 12 13 14 12 12 11 9 8 6 6 7 9 11 11 10 8 12 15 9 9 7 7 7 8 10 7 7 11 8 7 9 8 8 11 15 14 14 10 12 19 21 21 20 21 22 23 24 25 25 25 26 26
5 5 6 6 6 7 8 9 11 12 12 9 11 11 13 11 7 10 6 12 18 19 21 22 22 22 23 25 25 25 26 20 13 7 9 11 9 9 11 12 13 10 6 6 8 6 9 6 6 8 9 8 10 10 9 9 9 10 9 9 14 18 21 20 20 20 22 23 23 24 25 25 24 27
4 7 10 9 7 8 9 10 12 13 11 10 11 9 13 14 11 10 6 7 10 17 21 24 24 24 23 23 24 26 25 23 19 11 10 8 8 10 10 11 10 11 8 5 6 3 7 5 5 7 8 9 8 7 5 5 4 6 8 11 14 17 19 18 20 21 21 21 21 23 24 24 23 16
5 5 7 12 11 10 10 13 13 15 13 9 11 8 9 12 15 10 2 7 6 6 6 9 11 12 15 13 12 13 17 19 17 13 13 9 8 9 9 10 8 9 9 7 9 6 5 4 4 4 7 8 7 4 4 3 3 6 6 7 9 14 16 17 19 20 20 20 20 22 23 22 20 13
5 6 5 8 14 17 17 16 17 17 18 13 9 8 9 10 12 8 7 9 6 6 6 7 9 11 10 10 10 9 10 11 11 11 11 10 10 9 9 7 8 10 7 4 9 6 3 3 4 2 3 5 8 2 4 8 6 6 6 7 9 11 13 14 14 17 19 18 19 21 22 21 18 12
6 5 5 5 9 14 15 16 17 17 18 18 12 10 10 10 12 12 10 11 11 10 11 10 8 8 7 7 6 7 8 8 8 8 11 9 10 10 9 8 10 11 7 6 10 4 4 2 4 3 5 6 9 9 9 8 7 6 6 8 8 9 9 9 9 11 13 16 16 19 19 19 21 16
5 5 4 5 6 12 14 14 15 16 17 19 15 16 20 22 22 15 12 12 12 11 9 10 10 9 7 5 5 7 7 8 9 8 7 7 8 6 7 10 9 9 10 4 13 6 4 4 5 5 5 5 9 8 11 10 7 7 5 6 8 9 8 9 10 11 11 10 10 12 15 21 19 18
5 4 3 4 6 9 10 12 14 15 17 15 13 18 20 20 21 18 12 11 10 10 10 9 6 7 7 7 7 6 6 8 9 8 9 7 8 8 6 6 8 9 5 3 5 6 4 4 3 4 6 7 11 10 11 11 8 5 8 7 8 8 8 8 10 11 10 10 10 18 18 16 16 17
5 4 3 1 3 7 10 12 13 13 12 9 13 14 15 16 15 9 9 8 8 8 8 8 8 6 5 6 6 8 7 5 7 7 6 4 4 4 5 7 7 4 4 3 4 4 5 6 6 6 8 7 8 10 12 10 9 9 10 9 8 8 7 6 10 11 10 10 11 11 10 10 9 11
4 2 1 3 4 5 5 5 6 5 6 9 12 14 16 15 8 8 8 8 8 8 8 9 10 12 12 11 12 6 2 2 1 2 3 3 3 3 4 7 8 5 3 3 4 6 7 7 8 6 6 7 8 10 9 12 11 12 9 11 10 6 8 8 9 9 10 10 10 10 10 10 11 10
8 8 6 4 2 2 2 3 2 3 3 6 8 8 9 5 6 7 8 8 8 9 10 10 10 10 10 7 4 3 3 3 5 4 4 6 6 6 6 6 8 7 6 6 5 7 8 8 7 7 7 8 8 10 9 10 11 8 10 9 11 12 6 6 8 9 10 10 10 11 10 10 10 11
1 3 2 1 1 2 3 4 5 4 4 3 2 2 2 3 3 4 5 6 7 8 8 8 8 8 8 3 4 5 5 7 7 6 4 6 7 6 6 6 7 8 6 6 6 7 7 8 8 8 8 8 8 9 9 8 10 10 9 8 8 10 9 9 8 9 10 10 11 11 10 9 9 10
1 2 2 3 2 2 2 2 1 1 1 2 2 2 3 4 4 6 8 8 7 6 7 8 9 9 8 9 9 8 7 9 9 7 6 7 7 6 5 5 7 7 6 5 5 7 7 7 8 9 9 8 8 7 6 8 9 10 10 8 8 11 10 10 10 9 10 11 11 10 10 10 10 10
3 3 2 1 2 2 2 2 3 3 3 3 3 2 2 3 3 3 4 5 6 6 6 8 8 9 9 9 9 10 9 9 9 7 7 6 6 6 5 7 8 8 8 6 3 4 5 5 6 9 8 7 8 7 6 9 9 8 9 8 8 9 8 9 9 10 11 12 11 11 11 9 9 10
2 2 2 3 3 2 2 2 2 2 2 2 1 2 2 3 3 3 3 4 4 5 6 7 8 8 9 9 9 9 10 10 9 8 7 5 5 5 6 7 8 9 8 9 5 4 3 4 5 5 6 7 7 7 7 8 9 7 8 8 8 8 8 9 9 11 12 10 11 12 11 10 10 9
4 4 4 3 2 1 1 1 1 1 1 2 2 3 3 3 3 3 3 4 5 6 6 7 7 7 8 9 9 9 9 9 9 8 7 5 4 6 7 7 8 8 8 7 7 5 4 4 4 5 5 6 7 8 14 12 7 8 6 7 7 8 8 8 10 11 11 10 9 10 11 11 10 9
2 1 2 2 2 1 1 1 0 1 1 2 3 3 4 3 3 3 3 5 5 5 5 5 6 6 7 7 8 8 9 9 9 8 9 8 6 6 7 7 8 8 7 7 6 5 4 5 4 4 6 6 7 8 5 15 16 6 6 7 7 8 8 9 10 10 10 9 8 9 11 12 12 11
2 2 2 2 2 2 1 1 1 2 1 1 2 2 2 2 2 2 4 5 4 4 4 5 5 5 6 6 7 8 8 8 8 9 8 8 8 7 7 7 7 7 6 6 5 5 4 4 4 4 5 6 7 8 7 1 6 8 6 6 7 7 8 9 10 11 9 8 9 8 9 11 13 13
1 1 1 2 2 1 1 0 0 0 0 1 1 1 1 1 2 2 3 2 3 3 4 4 4 5 5 6 6 7 7 7 7 8 8 8 8 7 7 7 7 6 6 5 4 4 3 4 4 4 4 5 6 8 8 5 4 1 1 5 7 9 8 9 10 10 10 9 9 9 9 10 12 12
0 1 1 2 2 1 1 1 0 0 0 0 0 0 1 1 1 2 2 2 3 3 4 4 4 5 5 6 6 6 6 7 7 7 7 7 6 7 7 7 6 6 5 5 4 4 4 4 3 3 4 5 6 7 7 8 9 6 7 12 11 10 9 8 10 11 11 11 9 9 8 9 13 19
1 1 1 1 1 1 1 1 0 0 0 0 0 0 1 1 1 1 2 3 3 3 4 4 4 5 5 5 5 5 6 6 7 6 6 6 6 6 6 5 6 6 5 5 5 5 4 4 3 3 3 5 5 6 7 9 11 10 9 11 15 11 9 8 10 12 12 10 9 9 10 9 10 10
1 1 1 1 1 1 1 1 1 1 0 0 1 2 1 1 2 1 2 3 3 3 4 4 4 4 4 4 4 5 5 6 5 6 5 5 6 5 5 6 5 4 4 5 5 5 4 3 3 5 6 5 6 6 6 7 8 6 5 6 9 12 13 12 10 10 11 11 10 9 9 9 10 10
2 1 2 1 1 1 1 1 1 1 1 1 1 1 1 2 2 4 4 4 2 2 3 4 4 4 4 4 4 4 4 5 6 6 5 5 6 6 5 4 4 4 4 5 5 5 4 4 4 4 4 4 4 4 6 6 8 7 7 7 8 10 11 11 14 14 12 11 10 9 8 7 7 9
2 2 2 2 1 1 1 1 1 1 1 1 1 1 1 2 2 2 1 1 2 2 3 4 4 4 4 4 4 4 4 5 5 5 5 5 5 5 5 4 4 4 4 5 5 5 4 4 3 4 4 4 5 4 7 7 6 7 7 8 8 8 8 11 11 13 15 16 12 9 7 7 8 8
2 2 2 2 2 1 1 2 2 1 1 1 1 1 2 2 2 2 2 2 2 2 3 3 3 3 4 4 4 4 4 4 4 5 5 4 4 4 5 5 5 4 4 5 5 5 4 4 3 3 4 4 4 5 6 6 6 5 6 9 9 8 8 8 8 9 9 9 9 9 12 13 12 13
1 1 1 1 1 1 2 2 2 2 2 2 2 2 2 2 2 2 2 2 2 3 3 3 3 3 4 4 3 4 4 5 5 5 5 5 4 4 4 4 4 4 4 4 5 6 5 4 5 4 4 5 4 5 6 5 6 6 7 8 9 8 7 6 8 9 8 7 7 11 12 13 14 15
Wind_Direction
131 124 134 128 126 121 111 106 115 115 127 139 150 168 212 284 284 259 250 225 213 174 201 201 181 187 190 184 187 185 230 170 233 283 273 272 279 300 309 309 309 308 304 307 315 321 317 310 305 305 308 313 321 328 332 332 330 328 327 325 322 323 325 324 325 325 325 324 322 321 322 320 319 320
131 132 126 126 124 121 128 125 122 138 144 152 164 173 182 215 253 287 283 283 223 158 177 224 159 178 190 190 191 208 235 146 222 257 262 266 275 299 298 297 295 294 296 305 312 311 307 301 298 301 306 314 322 328 329 328 326 324 324 322 320 322 322 323 324 324 323 322 321 321 319 318 320 321
143 143 136 130 126 131 125 123 126 130 151 158 158 158 173 177 220 254 272 272 286 127 231 183 143 157 178 182 200 213 236 191 215 251 260 263 275 288 282 278 280 284 293 302 305 304 299 294 294 299 306 315 322 326 324 323 322 322 320 318 319 320 321 321 321 322 321 321 320 319 317 318 320 319
141 138 139 140 139 141 137 138 143 147 140 142 158 168 172 171 198 222 246 262 269 167 223 159 151 160 164 187 215 247 230 182 204 250 262 264 269 269 277 267 270 277 286 295 297 295 291 288 291 298 305 314 320 321 319 318 318 318 316 317 318 318 319 320 320 319 319 319 318 317 317 317 319 319
138 142 138 138 136 144 148 147 149 143 141 151 160 166 182 191 189 207 230 250 267 259 167 231 233 152 171 242 230 235 243 232 225 228 261 264 270 277 274 274 266 269 277 285 289 286 283 284 289 295 302 311 316 315 313 314 315 314 314 316 316 317 318 319 318 318 318 317 317 317 316 317 318 322
140 144 142 139 139 147 142 138 142 144 149 160 169 182 199 208 200 209 224 249 260 269 255 247 194 195 194 256 230 230 257 263 262 269 274 270 264 264 273 273 271 267 269 275 279 278 277 281 286 292 298 307 312 310 310 310 310 311 313 313 315 317 317 316 316 316 316 316 316 316 317 318 319 318
146 145 143 144 145 146 144 142 137 139 150 161 187 194 203 214 213 209 229 248 262 271 277 287 272 261 212 237 259 255 259 271 275 275 272 266 263 257 262 268 270 265 265 270 274 274 274 277 283 287 294 305 308 306 306 307 307 308 309 311 313 315 314 314 313 314 315 315 315 315 317 317 317 318
155 156 147 153 155 156 148 148 145 153 159 175 194 196 208 214 221 223 222 241 255 273 280 273 263 269 272 266 260 259 264 266 270 267 273 265 258 257 255 258 262 260 260 265 269 269 267 272 278 283 291 302 303 301 302 302 304 305 306 308 311 311 311 311 311 312 313 313 315 315 314 315 317 317
158 162 165 155 153 155 142 149 161 168 176 188 194 200 199 209 219 213 228 231 239 251 261 273 271 261 263 266 265 265 275 280 273 266 261 261 259 261 259 255 255 257 259 264 265 261 258 260 269 275 285 294 296 296 297 298 300 301 304 307 308 308 308 309 310 311 312 313 313 314 314 315 315 316
161 157 158 157 151 158 163 164 165 172 185 185 201 205 208 208 211 223 228 229 232 243 257 265 276 267 264 272 264 247 247 273 283 282 271 263 254 250 255 250 245 245 248 249 249 245 243 245 255 265 279 288 290 290 292 294 296 298 301 303 303 304 306 308 309 310 311 312 313 313 314 314 315 316
154 165 150 150 164 172 167 155 170 172 177 187 206 208 208 211 212 226 226 225 232 242 254 262 261 268 263 257 269 264 239 257 265 276 286 280 260 237 241 256 255 249 249 249 245 244 245 246 253 269 277 280 280 282 286 290 291 295 297 298 299 302 305 307 307 309 310 311 312 313 313 314 314 314
165 166 158 155 177 185 170 169 163 168 187 192 207 209 200 209 215 225 226 224 230 240 249 254 258 258 265 259 255 251 236 262 259 237 241 264 272 265 256 255 265 260 257 258 252 236 237 246 254 261 268 267 261 267 280 282 285 288 291 294 298 303 304 305 307 308 310 310 312 313 313 313 313 313
157 146 143 159 185 203 221 216 209 203 198 181 196 204 196 209 215 224 225 227 229 243 249 255 254 256 256 255 256 252 240 237 257 267 244 259 269 273 272 264 250 248 250 255 253 246 236 247 252 267 275 269 253 257 262 273 277 279 287 295 300 301 302 305 307 309 309 311 312 313 313 313 313 312
153 158 157 176 172 166 211 241 243 237 229 226 220 199 192 199 209 213 214 222 227 236 244 245 248 254 255 254 248 251 246 253 257 255 249 259 269 274 271 273 258 236 236 250 261 254 238 246 258 265 271 271 248 251 252 256 277 287 293 298 299 300 303 306 308 308 310 312 313 313 313 313 312 311
160 159 169 175 172 185 220 236 240 242 240 236 236 240 228 210 197 197 207 221 217 225 241 245 240 247 258 258 253 251 258 247 246 248 255 263 270 270 278 282 287 200 193 243 266 270 249 235 255 263 270 270 257 249 250 257 272 281 292 298 299 301 305 307 308 309 311 312 313 313 312 312 311 311
142 153 158 168 148 194 213 223 234 240 243 241 238 235 236 233 226 222 213 209 217 223 231 241 235 242 247 259 255 256 249 247 244 244 248 250 253 262 263 270 275 268 162 250 268 280 278 240 252 266 270 270 255 248 251 259 271 279 291 297 298 301 307 310 310 311 312 312 313 313 312 312 312 312
166 170 162 161 188 211 218 226 236 240 241 238 239 240 240 240 237 234 233 230 230 232 235 237 248 241 243 255 257 247 249 250 257 257 254 252 250 254 263 265 277 274 190 244 273 283 289 286 268 268 277 279 266 259 255 256 262 274 288 293 294 303 310 311 312 312 312 313 313 313 313 312 312 311
151 153 160 171 211 208 198 219 226 235 242 244 239 236 236 239 239 235 234 232 233 234 235 235 244 248 233 243 254 258 251 237 244 255 259 262 263 260 262 276 279 280 159 250 292 288 282 274 271 274 282 286 274 263 266 261 262 273 284 286 291 308 313 313 314 313 313 313 313 314 313 312 311 311
160 167 169 198 221 204 195 211 211 225 234 238 242 243 245 245 245 239 230 225 226 227 226 233 241 251 250 250 258 263 262 254 258 261 266 268 270 275 284 282 270 267 250 242 231 259 280 288 284 279 288 294 280 271 268 262 262 269 276 275 292 315 316 314 314 314 313 313 314 314 313 312 311 310
169 167 186 199 220 227 228 225 214 220 235 250 253 254 253 252 252 251 244 244 240 234 232 234 242 249 253 255 261 265 264 274 279 279 275 273 268 267 269 270 269 255 250 219 223 253 269 276 281 284 290 289 280 277 271 271 268 263 265 266 304 313 312 313 312 313 313 313 314 314 312 312 311 311
184 195 195 208 224 234 241 232 227 233 229 245 249 252 257 257 252 257 242 244 251 255 258 261 263 265 266 268 269 270 270 269 264 251 265 262 255 250 258 265 271 264 250 212 223 239 271 276 277 287 289 288 285 281 274 268 256 248 248 264 291 301 307 309 310 308 313 315 313 311 311 311 312 313
194 214 211 217 228 237 247 238 233 237 234 243 248 243 256 262 259 255 225 230 238 243 250 256 261 267 271 274 277 277 278 279 279 271 252 250 254 251 249 260 266 275 269 218 190 202 253 278 275 286 293 291 269 267 266 265 258 231 242 267 282 295 299 306 307 308 308 309 309 308 309 311 315 314
214 221 214 220 225 234 241 241 242 240 231 237 244 235 242 248 258 256 222 242 245 240 240 248 255 259 262 266 265 268 269 270 268 264 268 269 240 247 251 257 269 276 264 224 185 223 253 252 278 306 315 302 294 252 263 238 265 280 280 281 285 289 298 305 305 303 305 307 306 305 307 312 317 311
225 213 222 210 224 236 242 245 245 241 234 235 241 241 243 250 255 272 264 259 262 266 255 259 256 259 260 258 260 260 263 261 253 256 255 255 257 250 245 237 245 253 263 146 179 213 265 233 266 238 239 293 304 309 273 289 279 277 285 286 284 294 302 305 304 303 304 306 304 303 306 310 314 310
239 237 223 223 216 233 242 245 246 246 244 243 245 246 242 247 269 281 277 277 262 261 266 264 250 251 248 243 244 246 252 251 245 244 249 249 250 252 245 242 242 249 246 173 182 170 233 226 252 255 255 267 274 288 287 287 284 277 287 284 286 298 304 306 306 304 306 306 302 301 304 307 312 311
244 243 241 242 209 226 241 248 253 256 259 261 260 262 265 271 276 277 272 274 275 268 262 267 268 264 258 242 230 239 240 243 239 238 243 243 247 243 246 246 249 253 258 179 182 190 207 262 238 253 268 261 272 268 289 292 287 286 282 290 296 296 304 307 305 303 308 308 302 302 303 307 307 308
245 244 235 225 194 232 246 257 263 269 273 274 272 275 280 283 286 288 287 288 288 284 281 276 253 264 261 255 262 252 245 263 262 262 260 251 243 247 253 259 266 270 293 142 227 217 228 252 244 235 261 269 279 287 282 285 295 306 298 296 298 303 301 301 304 305 306 305 303 304 305 304 306 308
242 248 242 210 194 246 256 266 278 285 288 289 290 294 296 301 303 301 293 289 285 287 286 282 282 282 277 270 265 271 272 263 277 271 264 242 240 249 258 262 265 260 252 226 207 219 226 248 262 256 256 257 264 275 286 284 285 296 303 305 301 298 296 302 303 300 300 306 306 307 307 309 312 313
255 267 321 343 360 13 13 1 343 328 314 311 309 305 302 300 293 293 290 287 282 272 272 278 282 286 288 287 286 301 317 324 306 256 261 245 238 255 269 263 260 257 233 227 225 237 240 241 254 255 244 246 255 265 271 282 292 296 303 310 304 305 308 297 295 299 305 305 302 304 304 309 311 310
50 51 48 41 357 321 346 325 297 288 288 299 301 305 308 293 285 285 287 290 289 288 289 288 288 293 297 304 5 11 301 288 281 277 267 277 267 255 252 258 259 246 228 230 226 237 243 244 245 249 252 253 249 259 266 280 287 290 298 295 294 300 285 305 306 303 302 303 303 303 303 304 302 307
7 61 56 105 132 230 256 256 261 262 281 295 310 331 334 319 309 300 295 299 304 304 306 305 305 303 300 293 279 293 301 301 300 287 264 272 271 268 258 257 264 265 239 200 216 230 235 243 249 243 247 254 253 252 263 270 280 289 290 288 293 294 308 307 300 298 303 304 304 301 300 303 303 301
136 136 146 178 194 193 222 234 246 293 331 323 315 316 313 301 292 292 292 294 294 295 301 302 304 305 306 305 306 304 299 297 294 286 275 273 272 272 261 258 264 260 257 218 209 215 221 232 246 246 244 245 252 262 262 265 272 283 286 282 283 296 297 298 302 301 306 309 304 302 306 308 306 304
150 172 188 216 253 276 292 304 308 314 308 313 319 314 306 315 313 317 322 311 308 308 311 305 305 303 303 300 302 297 293 292 294 291 280 272 268 273 262 254 265 269 271 264 218 198 198 221 237 246 252 258 259 269 278 280 271 269 277 281 298 297 297 296 302 306 313 311 305 307 305 304 302 304
201 240 258 271 276 272 280 274 264 279 299 314 352 338 356 333 328 332 328 324 327 330 313 303 300 298 299 297 297 296 296 299 299 294 278 277 276 265 262 262 265 269 268 271 270 256 231 220 239 240 245 248 252 249 246 256 269 273 274 295 297 300 296 298 299 308 311 306 306 304 302 304 304 306
214 206 219 224 205 195 191 156 120 344 346 332 331 322 324 314 327 335 329 335 338 320 309 304 304 304 304 303 305 304 305 305 307 309 294 268 266 269 267 268 272 272 269 271 273 274 269 266 264 269 265 265 266 242 217 226 259 258 282 289 290 290 293 299 302 305 307 303 301 298 303 302 304 311
208 139 151 157 149 163 211 200 215 321 336 319 323 317 315 315 327 337 331 343 332 311 311 316 315 313 312 312 311 310 309 309 306 306 306 298 287 279 274 269 274 277 279 280 286 291 289 284 286 293 299 298 295 298 294 214 216 240 279 301 303 295 297 300 301 301 301 299 300 304 305 307 306 309
181 157 159 195 202 206 207 228 274 294 320 344 334 325 321 319 323 340 343 329 307 316 323 321 319 321 319 317 317 314 314 314 313 314 312 310 303 296 287 284 277 276 279 281 287 294 294 295 302 304 301 297 296 297 290 342 235 252 288 289 294 296 307 307 304 299 296 299 303 303 301 303 300 302
194 167 164 201 202 205 215 188 61 19 42 344 317 314 318 319 317 325 320 313 325 323 322 323 316 321 321 323 319 318 319 316 315 312 312 312 308 305 304 300 299 293 292 296 298 300 306 306 305 300 287 287 299 293 303 308 300 265 22 332 303 301 305 300 296 296 299 303 300 301 301 295 296 300
147 158 141 130 124 137 149 115 115 143 39 261 300 297 298 297 306 317 317 317 314 319 320 317 318 326 324 321 320 318 318 318 314 310 311 313 313 311 309 306 301 300 298 297 303 302 303 301 297 283 277 287 284 298 308 301 290 296 307 295 283 284 285 286 290 294 297 301 301 302 295 291 290 293
84 95 99 110 130 126 130 138 141 164 190 241 253 295 278 278 293 295 302 306 315 318 315 311 319 324 321 324 320 315 311 306 307 308 311 311 312 310 306 310 305 301 301 299 307 313 311 307 305 303 313 296 296 309 300 286 283 284 276 272 267 265 273 288 291 295 296 296 302 306 305 306 302 308
131 128 119 120 126 136 147 168 159 187 216 209 241 259 264 270 272 276 284 290 313 311 308 309 309 308 304 308 308 312 306 305 306 307 310 310 306 304 304 302 294 295 298 304 306 306 315 352 7 329 311 292 293 291 280 276 280 289 306 316 306 297 293 291 293 292 290 296 297 299 301 305 307 310
138 136 133 150 153 162 159 173 190 190 213 223 229 239 242 251 245 267 280 289 285 275 289 294 298 299 298 299 301 302 298 299 303 306 311 311 308 306 298 288 292 304 300 297 302 304 315 315 305 301 296 293 289 281 278 277 291 307 314 308 301 301 305 303 297 289 286 287 292 294 298 300 305 306
160 154 163 166 168 182 183 182 203 207 221 224 233 249 261 264 264 263 266 274 283 290 296 300 299 298 301 305 305 303 298 295 300 303 305 302 299 300 303 302 300 296 291 290 296 300 296 300 301 307 308 297 283 263 273 286 296 302 307 309 307 310 306 305 302 298 297 294 287 280 282 295 307 307
168 171 166 165 185 191 200 198 207 224 224 232 236 236 246 260 267 268 269 271 275 289 299 297 296 297 303 305 306 303 300 301 302 299 296 300 296 293 294 300 296 290 292 291 300 300 302 305 310 307 305 292 292 276 276 291 296 308 311 302 300 303 307 316 317 310 302 292 290 294 305 307 304 303
185 194 180 182 197 208 207 207 208 213 223 232 237 237 241 248 259 264 260 256 258 270 279 277 287 294 298 299 301 304 308 307 303 299 299 297 300 297 294 291 297 300 296 302 301 305 313 312 308 301 283 280 283 272 278 281 292 303 296 296 295 300 305 321 324 323 321 317 306 316 324 324 322 321